This demonstration page uses our WeatherBlox Daily Observations layout. Learn more.

40.92945, -100.16068

Hourly Observations for December 29, 2017

Temp ( °F °C ) Dew Point ( °F °C ) Humidity (%) Winds ( mph kmh ) Pressure ( in mb ) Visibility ( mi km ) Precip ( " mm )
12:15 am 00:15 Clear 19 -7 15 -9.5 83 83 SE 7 11 30.42 1030 10 16.09344 0 0
12:35 am 00:35 Clear 19 -7 15 -9.5 83 83 SE 7 11 30.42 1030 10 16.09344 0 0
12:55 am 00:55 Clear 18 -7.7 14 -10 84 84 SE 5 7 30.42 1030 10 16.09344 0 0
1:15 am 01:15 Clear 18 -7.9 14 -10.2 84 84 SSE 9 15 30.39 1029 10 16.09344 0 0
1:35 am 01:35 Clear 15 -9.2 12 -11.1 86 86 SSE 8 13 30.42 1030 10 16.09344 0 0
1:55 am 01:55 Clear 15 -9.2 12 -11.3 85 85 SSE 10 17 30.36 1028 10 16.09344 0 0
2:15 am 02:15 Clear 16 -8.7 12 -11.1 83 83 SSE 9 15 30.36 1028 10 16.09344 0 0
2:35 am 02:35 Clear 14 -10 10 -12.4 83 83 SSE 9 15 30.39 1029 10 16.09344 0 0
2:55 am 02:55 Clear 15 -9.7 10 -12.1 83 83 SSE 8 13 30.39 1029 10 16.09344 0 0
3:15 am 03:15 Clear 15 -9.6 10 -12.2 82 82 SSE 6 9 30.42 1030 10 16.09344 0 0
3:35 am 03:35 Clear 14 -10 10 -12.5 82 82 SSE 7 11 30.39 1029 10 16.09344 0 0
3:55 am 03:55 Clear 14 -10.2 9 -12.6 83 83 SSE 10 17 30.39 1029 10 16.09344 0 0
4:15 am 04:15 Clear 12 -10.9 8 -13.1 84 84 SSE 10 17 30.36 1028 10 16.09344 0 0
4:35 am 04:35 Clear 13 -10.8 9 -13 84 84 SSE 10 17 30.33 1027 10 16.09344 0 0
4:55 am 04:55 Clear 13 -10.7 9 -12.8 85 85 SSE 9 15 30.3 1026 10 16.09344 0 0
5:15 am 05:15 Clear 12 -11 9 -13 85 85 SSE 9 15 30.27 1025 10 16.09344 0 0
5:35 am 05:35 Clear 13 -10.7 9 -12.7 85 85 SSE 9 15 30.27 1025 10 16.09344 0 0
5:55 am 05:55 Clear 13 -10.8 9 -12.9 85 85 SSE 9 15 30.27 1025 10 16.09344 0 0
6:15 am 06:15 Clear 11 -11.4 8 -13.4 85 85 SSE 8 13 30.27 1025 10 16.09344 0 0
6:35 am 06:35 Clear 12 -11.3 8 -13.1 87 87 SE 10 17 30.27 1025 10 16.09344 0 0
6:55 am 06:55 Clear 12 -11.2 9 -13 87 87 SE 10 17 30.24 1024 10 16.09344 0 0
7:15 am 07:15 Clear 10 -12.1 7 -14 86 86 SE 7 11 30.24 1024 10 16.09344 0 0
7:35 am 07:35 Clear 10 -12.1 7 -13.9 87 87 ESE 7 11 30.24 1024 7 11.265408 0 0
7:55 am 07:55 Clear 10 -12.3 7 -14.1 87 87 E 5 7 30.24 1024 10 16.09344 0 0
8:15 am 08:15 Sunny 9 -13 5 -14.8 87 87 E 5 7 30.24 1024 7 11.265408 0 0
8:35 am 08:35 Partly Cloudy with Mist and Fog 7 -14.1 3 -16 86 86 E 5 7 30.27 1025 5 8.04672 0 0
8:55 am 08:55 Mostly Cloudy with Mist and Fog 7 -13.9 4 -15.8 86 86 E 6 9 30.27 1025 5 8.04672 0 0
9:15 am 09:15 Cloudy 10 -12.1 7 -13.9 87 87 E 5 7 30.24 1024 7 11.265408 0 0
9:35 am 09:35 Mostly Cloudy with Mist and Fog 11 -11.9 7 -13.7 87 87 E 5 7 30.24 1024 5 8.04672 0 0
9:55 am 09:55 Partly Cloudy 11 -11.6 8 -13.5 86 86 E 5 7 30.24 1024 7 11.265408 0 0
10:15 am 10:15 Partly Cloudy 11 -11.5 8 -13.5 85 85 E 3 6 30.24 1024 7 11.265408 0 0
10:35 am 10:35 Mostly Cloudy 12 -11 8 -13.1 85 85 Calm 30.24 1024 7 11.265408 0 0
10:55 am 10:55 Mostly Cloudy 13 -10.6 9 -12.8 84 84 N 5 7 30.27 1025 10 16.09344 0 0
11:15 am 11:15 Partly Cloudy 13 -10.5 9 -12.8 83 83 NE 6 9 30.27 1025 7 11.265408 0 0
11:35 am 11:35 Sunny 14 -9.9 10 -12.1 84 84 NE 7 11 30.24 1024 7 11.265408 0 0
11:55 am 11:55 Sunny 15 -9.4 11 -11.7 84 84 NNE 8 13 30.24 1024 10 16.09344 0 0
12:15 pm 12:15 Mostly Cloudy 17 -8.5 12 -11 82 82 N 12 19 30.24 1024 10 16.09344 0 0
12:35 pm 12:35 Mostly Cloudy 17 -8.3 12 -11 81 81 N 8 13 30.24 1024 7 11.265408 0 0
12:55 pm 12:55 Partly Cloudy 18 -8 13 -10.6 82 82 N 10 17 30.24 1024 7 11.265408 0 0
1:15 pm 13:15 Partly Cloudy 18 -8 13 -10.6 82 82 NNE 13 20 30.24 1024 7 11.265408 0 0
1:35 pm 13:35 Partly Cloudy 18 -7.6 13 -10.3 81 81 N 16 26 30.27 1025 7 11.265408 0 0
1:55 pm 13:55 Mostly Cloudy with Mist and Fog 19 -7.5 14 -10 83 83 N 16 26 30.27 1025 5 8.04672 0 0
2:15 pm 14:15 Cloudy with Haze 19 -7.3 14 -10 81 81 N 17 28 30.3 1026 4 6.437376 0 0
2:35 pm 14:35 Cloudy with Haze 19 -7 15 -9.7 81 81 N 18 30 30.27 1025 4 6.437376 0 0
2:55 pm 14:55 Cloudy with Haze 19 -7 14 -9.8 81 81 N 22 35 30.27 1025 5 8.04672 0 0
3:15 pm 15:15 Cloudy with Haze 19 -7 14 -9.8 81 81 N 20 31 30.27 1025 5 8.04672 0 0
3:35 pm 15:35 Cloudy with Haze 19 -7.1 14 -10 80 80 N 23 37 30.33 1027 5 8.04672 0 0
3:55 pm 15:55 Cloudy with Haze 19 -7.2 14 -10 81 81 N 17 28 30.36 1028 5 8.04672 0 0
4:15 pm 16:15 Cloudy 19 -7.5 13 -10.5 79 79 N 18 30 30.39 1029 7 11.265408 0 0
4:35 pm 16:35 Cloudy with Light Snow 18 -7.7 13 -10.7 79 79 N 17 28 30.42 1030 4 6.437376 0 0
4:55 pm 16:55 Cloudy with Light Snow 18 -8 12 -11 79 79 N 16 26 30.42 1030 3 4.828032 0 0
5:15 pm 17:15 Windy with Snow Likely 17 -8.2 12 -11.2 79 79 N 20 31 30.42 1030 2 3.218688 0 0
5:35 pm 17:35 Cloudy with Light Snow 16 -8.7 11 -11.8 79 79 N 18 30 30.48 1032 7 11.265408 0 0
5:55 pm 17:55 Cloudy 16 -9 10 -12.4 77 77 N 18 30 30.48 1032 7 11.265408 0 0
6:15 pm 18:15 Cloudy 15 -9.7 8 -13.1 77 77 N 21 33 30.5 1033 10 16.09344 0 0
6:35 pm 18:35 Cloudy 14 -10.2 8 -13.6 76 76 N 21 33 30.5 1033 7 11.265408 0 0
6:55 pm 18:55 Cloudy 12 -10.9 6 -14.5 75 75 N 18 30 30.56 1035 7 11.265408 0 0
7:15 pm 19:15 Partly Cloudy 11 -11.7 4 -15.5 74 74 N 17 28 30.56 1035 10 16.09344 0 0
7:35 pm 19:35 Clear 10 -12.1 4 -15.6 75 75 N 16 26 30.56 1035 10 16.09344 0 0
7:55 pm 19:55 Partly Cloudy 9 -12.6 3 -16 76 76 N 17 28 30.59 1036 10 16.09344 0 0
8:15 pm 20:15 Partly Cloudy 9 -13 2 -16.5 75 75 NNW 15 24 30.59 1036 10 16.09344 0 0
8:35 pm 20:35 Clear 8 -13.2 1 -17 73 73 N 16 26 30.62 1037 10 16.09344 0 0
8:55 pm 20:55 Partly Cloudy 8 -13.5 1 -17.1 75 75 N 13 20 30.62 1037 10 16.09344 0 0
9:15 pm 21:15 Mostly Cloudy 8 -13.6 1 -17.2 75 75 N 10 17 30.62 1037 10 16.09344 0 0
9:35 pm 21:35 Cloudy 7 -13.8 1 -17.5 74 74 N 13 20 30.65 1038 10 16.09344 0 0
9:55 pm 21:55 Partly Cloudy 7 -14.1 0 -17.7 74 74 N 12 19 30.62 1037 10 16.09344 0 0
10:15 pm 22:15 Clear 6 -14.6 0 -18 76 76 N 10 17 30.65 1038 10 16.09344 0 0
10:35 pm 22:35 Clear 5 -14.8 -1 -18.2 76 76 N 12 19 30.62 1037 10 16.09344 0 0
10:55 pm 22:55 Clear 5 -14.9 -1 -18.2 76 76 N 12 19 30.65 1038 10 16.09344 0 0
11:15 pm 23:15 Clear 5 -15 -1 -18.5 75 75 N 8 13 30.65 1038 10 16.09344 0 0
11:35 pm 23:35 Clear 5 -15.2 -1 -18.5 76 76 N 12 19 30.65 1038 10 16.09344 0 0
11:55 pm 23:55 Clear 4 -15.6 -2 -19 75 75 NW 5 7 30.68 1039 10 16.09344 0 0

Powered by AerisWeather